Regional Weather Roundup
Issued by NWS Charleston, SC

Current Version | Previous Version | Graphics & Text | Print | Product List | Glossary On
Versions: 1 2 3 4 5 6 7 8 9 10 11 12 13 14 15 16 17 18 19 20 21 22 23 24 25 26 27 28 29 30 31 32 33 34 35 36 37 38 39 40 41 42 43 44 45 46 47 48 49 50
000
ASUS42 KCHS 190625
RWRCHS

REGIONAL WEATHER ROUNDUP
NATIONAL WEATHER SERVICE CHARLESTON SC
100 AM EST FRI DEC 19 2014

NOTE: "FAIR" INDICATES FEW OR NO CLOUDS BELOW 12,000 FEET WITH NO
SIGNIFICANT WEATHER AND/OR OBSTRUCTIONS TO VISIBILITY.

NOT ALL STATIONS ARE QUALITY CONTROLLED BY THE NATIONAL
WEATHER SERVICE. USE DATA WITH CAUTION...ESPECIALLY
DEWPOINT OBSERVATIONS.

SCZ027-030-031-034>040-042>050-190700-
...SOUTHEAST SOUTH CAROLINA...

CITY           SKY/WX    TMP DP  RH WIND       PRES   REMARKS
N CHARLESTON   MOCLDY    47  44  90 CALM      30.10F
6HR MIN TEMP:  45; 6HR MAX TEMP:  52;

WATERFRONT PRK   N/A     52 N/A N/A CALM        N/A
MOUNT PLEASANT FAIR      45  45 100 CALM      30.09F
PINOPOLIS        N/A     48  46  93 MISG      30.02F
MONCKS CORNER  FAIR      43  41  93 CALM      30.09F
SUMMERVILLE    NOT AVBL
BEAUFORT MCAS  CLOUDY    47  44  90 CALM      30.10F
6HR MIN TEMP:  46; 6HR MAX TEMP:  53;

BEAUFORT ARPT  FAIR      46  46 100 SW3       30.09F FOG
HILTON HEAD IS CLOUDY    46  46 100 CALM      30.10F
WALTERBORO     PTCLDY    41 N/A N/A CALM      30.11S
ALLENDALE      FAIR      41  41 100 CALM      30.10S

...SOUTHERN MIDLANDS AND PEE DEE...

CITY           SKY/WX    TMP DP  RH WIND       PRES   REMARKS
GEORGETOWN     NOT AVBL
KINGSTREE      NOT AVBL
ORANGEBURG     MOCLDY    41  38  89 CALM      30.10F
6HR MIN TEMP:  41; 6HR MAX TEMP:  49;

BARNWELL         N/A     39  37  93 CALM      30.10F
AIKEN          FAIR      39  39 100 CALM      30.12F
MANNING        NOT AVBL
COLUMBIA       MOCLDY    39  36  89 CALM      30.09F
6HR MIN TEMP:  39; 6HR MAX TEMP:  50;

SUMTER         CLOUDY    42  37  83 CALM      30.08F
6HR MIN TEMP:  41; 6HR MAX TEMP:  46;

FLORENCE       PTCLDY    38  34  85 CALM      30.10F
6HR MIN TEMP:  38; 6HR MAX TEMP:  47;

MYRTLE BEACH   PTCLDY    39  36  87 CALM      30.10F
N MYRTLE BEACH CLEAR     37  35  92 CALM      30.10F
6HR MIN TEMP:  37; 6HR MAX TEMP:  43;


$$

GAZ063-065-086>088-099>101-113>116-118-119-134>141-150-190700-
...SOUTHEAST GEORGIA...

CITY           SKY/WX    TMP DP  RH WIND       PRES   REMARKS
SAVANNAH ARPT  CLOUDY    46  41  82 CALM      30.10F
6HR MIN TEMP:  45; 6HR MAX TEMP:  51;

HUNTER AAF     CLOUDY    45  44  93 CALM      30.08F
6HR MIN TEMP:  45; 6HR MAX TEMP:  50;

FORT STEWART   CLOUDY    45  41  85 CALM      30.10S
6HR MIN TEMP:  44; 6HR MAX TEMP:  49;

STATESBORO     MOCLDY    42  42 100 CALM      30.10F
SYLVANIA       MOCLDY    44  43  98 CALM      30.11F
CLAXTON        FAIR      41  41 100 CALM      30.12R

...CSRA...CENTRAL AND FAR SOUTHEAST GEORGIA...

CITY           SKY/WX    TMP DP  RH WIND       PRES   REMARKS
THOMSON        MOCLDY    43  40  88 CALM      30.14F
AUGUSTA-BUSH   MOCLDY    39  37  92 CALM      30.10F
6HR MIN TEMP:  37; 6HR MAX TEMP:  48;

AUGUSTA-DANIEL MOCLDY    51  35  54 W5        30.10F
SWAINSBORO     FAIR      45  45 100 CALM      30.12S
VIDALIA        CLOUDY    50  37  62 NW3       30.12S
EASTMAN        CLOUDY    44  38  79 CALM      30.16R
HAZLEHURST     FAIR      47  42  84 CALM      30.11S
ALMA           MOCLDY    45  41  86 CALM      30.11F
6HR MIN TEMP:  44; 6HR MAX TEMP:  49;

WAYCROSS       MOCLDY    48  45  88 CALM      30.12S
JESUP          FAIR      45  43  93 W3        30.11S
BAXLEY         FAIR      46  41  81 CALM      30.12R
BRUNSWICK      PTCLDY    46  43  87 CALM      30.12F
SAINT SIMONS   PTCLDY    47  43  86 W3        30.11F
6HR MIN TEMP:  47; 6HR MAX TEMP:  55;


$$

SCZ027-028-034-036>038-045-046-048>050-GAZ119-141-190700-
...LAKE AND SUPPLEMENTAL COASTAL OBSERVATIONS...

STATION/POSITION TIME  TEMP    WIND        PRES    WAVE   SWELL
                       AIR SEA DIR/SP/G            HT/PER HT/PER/DIR
                 (UTC) (F)     (DEG/KT/KT) (MB)    (FT/S) (FT/S/D)
UPR LAKE MARION  NOT AVBL
WINYAH BAY       0600   43     320/  2     1019.0S
LAKE MURRAY      0600   50     100/  2/  3 1018.3S
ACE BASIN NERRS  0600   45        CALM     1019.0S
FORT PULASKI     0600   52 56  270/  3/  4 1019.5F
SAPELO ISLAND    0600   48        CALM     1019.0F

$$

ANZ835-935-AMZ111-154-330-350-352-354-370-450-454-472-190700-
...C-MAN AND BUOY OBSERVATIONS...

STATION/POSITION TIME  TEMP    WIND        PRES    WAVE   SWELL
                       AIR SEA DIR/SP/G            HT/PER HT/PER/DIR
                 (UTC) (F)     (DEG/KT/KT) (MB)    (FT/S) (FT/S/D)
BUOY 41004       0600   61 72  320/ 10/ 12 1018.7F   2/ 4   2/ 4
BUOY 41008       0600   58 57  290/  8/  8 1019.5F   1/10   2/100/10
FOLLY BEACH CMAN 0600   49     300/  3/  4 1019.3F
CAPERS NEARSHORE 0500   52     350/  6/  6   N/A
FRIPP NEARSHORE  NOT AVBL


STATION/POSITION TIME  TEMP    WIND        PRES    WAVE   SWELL
                       AIR SEA DIR/SP/G            HT/PER HT/PER/DIR
                 (UTC) (F)     (DEG/KT/KT) (MB)    (FT/S) (FT/S/D)
5E ST. MARYS GA  0600      61                N/A     1/11
FRYING PAN BUOY  0600   57 65  360/  6/  8 1019.7F   2/10   2/110/10
BUOY 41025       0600   47                 1019.5F   3/ 8
CAPE LOOKOUT NC  0600   48      30/  1/  1 1018.6F
BUOY 41002       0541   69 72  260/  8/ 12 1017.5F   3/ 5   3/290/ 5
BUOY 41010       0600   70 76  300/  8/ 12 1019.0F   2/10   2/130/10
ST AUGUSTINE FL  0600   53     280/  6/  6 1020.8F


$$


USA.gov is the U.S. government's official web portal to all federal, state and local government web resources and services.